Tracking 25963 objects as of 12-Aug-2022
HD Live streaming from Space Station
objects crossing your sky now

OBJECT H

Track OBJECT H now!
10-day predictions


NORAD ID: 51831
Int'l Code: 2022-019H
Perigee: 525.2 km
Apogee: 555.9 km
Inclination: 97.5 °
Period: 95.3 minutes
Semi major axis: 6911 km
RCS: Unknown
Launch date: February 27, 2022
Source: People's Republic of China (PRC)
Launch site: Wenchang Satellite Launch Center (WSC)
aabbcc
Your satellite tracking list
Your tracking list is empty




NASA's NSSDC Master Catalog

Two Line Element Set (TLE):
1 51831U 22019H   22224.16570476  .00003170  00000-0  19306-3 0  9993
2 51831  97.5105 297.8151 0022200  61.2571 354.1618 15.10914878 25052
Source of the keplerian elements: AFSPC